Year,Month,Day,Hour,Minute,Value (Times are PST for temperature in C)
2017,04,02,00,00,3.80
2017,04,02,00,01,3.80
2017,04,02,00,02,3.80
2017,04,02,00,03,3.80
2017,04,02,00,04,3.80
2017,04,02,00,05,3.80
2017,04,02,00,06,3.80
2017,04,02,00,07,3.80
2017,04,02,00,08,3.80
2017,04,02,00,09,3.80
2017,04,02,00,10,3.80
2017,04,02,00,11,3.70
2017,04,02,00,12,3.70
2017,04,02,00,13,3.70
2017,04,02,00,14,3.70
2017,04,02,00,15,3.70
2017,04,02,00,16,3.60
2017,04,02,00,17,3.60
2017,04,02,00,18,3.60
2017,04,02,00,19,3.60
2017,04,02,00,20,3.60
2017,04,02,00,21,3.60
2017,04,02,00,22,3.60
2017,04,02,00,23,3.60
2017,04,02,00,24,3.60
2017,04,02,00,25,3.60
2017,04,02,00,26,3.60
2017,04,02,00,27,3.60
2017,04,02,00,28,3.50
2017,04,02,00,29,3.50
2017,04,02,00,30,3.50
2017,04,02,00,31,3.50
2017,04,02,00,32,3.50
2017,04,02,00,33,3.40
2017,04,02,00,34,3.40
2017,04,02,00,35,3.40
2017,04,02,00,36,3.40
2017,04,02,00,37,3.40
2017,04,02,00,38,3.30
2017,04,02,00,39,3.30
2017,04,02,00,40,3.30
2017,04,02,00,41,3.30
2017,04,02,00,42,3.30
2017,04,02,00,43,3.30
2017,04,02,00,44,3.20
2017,04,02,00,45,3.20
2017,04,02,00,46,3.20
2017,04,02,00,47,3.20
2017,04,02,00,48,3.20
2017,04,02,00,49,3.10
2017,04,02,00,50,3.10
2017,04,02,00,51,3.10
2017,04,02,00,52,3.10
2017,04,02,00,53,3.00
2017,04,02,00,54,3.00
2017,04,02,00,55,2.90
2017,04,02,00,56,2.90
2017,04,02,00,57,2.90
2017,04,02,00,58,2.90
2017,04,02,00,59,2.80
2017,04,02,01,00,2.80
2017,04,02,01,01,2.80
2017,04,02,01,02,2.70
2017,04,02,01,03,2.70
2017,04,02,01,04,2.60
2017,04,02,01,05,2.60
2017,04,02,01,06,2.60
2017,04,02,01,07,2.60
2017,04,02,01,08,2.50
2017,04,02,01,09,2.50
2017,04,02,01,10,2.50
2017,04,02,01,11,2.60
2017,04,02,01,12,2.60
2017,04,02,01,13,2.70
2017,04,02,01,14,2.70
2017,04,02,01,15,2.80
2017,04,02,01,16,2.80
2017,04,02,01,17,2.80
2017,04,02,01,18,2.80
2017,04,02,01,19,2.80
2017,04,02,01,20,2.80
2017,04,02,01,21,2.80
2017,04,02,01,22,2.70
2017,04,02,01,23,2.70
2017,04,02,01,24,2.70
2017,04,02,01,25,2.70
2017,04,02,01,26,2.60
2017,04,02,01,27,2.60
2017,04,02,01,28,2.60
2017,04,02,01,29,2.50
2017,04,02,01,30,2.50
2017,04,02,01,31,2.50
2017,04,02,01,32,2.50
2017,04,02,01,33,2.40
2017,04,02,01,34,2.40
2017,04,02,01,35,2.40
2017,04,02,01,36,2.40
2017,04,02,01,37,2.40
2017,04,02,01,38,2.30
2017,04,02,01,39,2.30
2017,04,02,01,40,2.30
2017,04,02,01,41,2.30
2017,04,02,01,42,2.30
2017,04,02,01,43,2.30
2017,04,02,01,44,2.30
2017,04,02,01,45,2.30
2017,04,02,01,46,2.30
2017,04,02,01,47,2.30
2017,04,02,01,48,2.30
2017,04,02,01,49,2.30
2017,04,02,01,50,2.30
2017,04,02,01,51,2.30
2017,04,02,01,52,2.30
2017,04,02,01,53,2.30
2017,04,02,01,54,2.30
2017,04,02,01,55,2.30
2017,04,02,01,56,2.30
2017,04,02,01,57,2.30
2017,04,02,01,58,2.30
2017,04,02,01,59,2.30
2017,04,02,02,00,2.30
2017,04,02,02,01,2.30
2017,04,02,02,02,2.40
2017,04,02,02,03,2.30
2017,04,02,02,04,2.30
2017,04,02,02,05,2.30
2017,04,02,02,06,2.30
2017,04,02,02,07,2.30
2017,04,02,02,08,2.30
2017,04,02,02,09,2.20
2017,04,02,02,10,2.20
2017,04,02,02,11,2.20
2017,04,02,02,12,2.20
2017,04,02,02,13,2.20
2017,04,02,02,14,2.20
2017,04,02,02,15,2.20
2017,04,02,02,16,2.20
2017,04,02,02,17,2.20
2017,04,02,02,18,2.20
2017,04,02,02,19,2.20
2017,04,02,02,20,2.10
2017,04,02,02,21,2.10
2017,04,02,02,22,2.10
2017,04,02,02,23,2.10
2017,04,02,02,24,2.10
2017,04,02,02,25,2.10
2017,04,02,02,26,2.10
2017,04,02,02,27,2.00
2017,04,02,02,28,2.00
2017,04,02,02,29,2.00
2017,04,02,02,30,2.00
2017,04,02,02,31,2.00
2017,04,02,02,32,2.00
2017,04,02,02,33,2.00
2017,04,02,02,34,2.00
2017,04,02,02,35,2.00
2017,04,02,02,36,2.00
2017,04,02,02,37,2.00
2017,04,02,02,38,1.90
2017,04,02,02,39,1.90
2017,04,02,02,40,1.90
2017,04,02,02,41,1.80
2017,04,02,02,42,1.80
2017,04,02,02,43,1.80
2017,04,02,02,44,1.80
2017,04,02,02,45,1.80
2017,04,02,02,46,1.80
2017,04,02,02,47,1.70
2017,04,02,02,48,1.70
2017,04,02,02,49,1.70
2017,04,02,02,50,1.70
2017,04,02,02,51,1.70
2017,04,02,02,52,1.70
2017,04,02,02,53,1.70
2017,04,02,02,54,1.70
2017,04,02,02,55,1.80
2017,04,02,02,56,1.80
2017,04,02,02,57,1.90
2017,04,02,02,58,2.00
2017,04,02,02,59,2.10
2017,04,02,03,00,2.20
2017,04,02,03,01,2.10
2017,04,02,03,02,2.10
2017,04,02,03,03,2.00
2017,04,02,03,04,2.00
2017,04,02,03,05,1.90
2017,04,02,03,06,1.80
2017,04,02,03,07,1.80
2017,04,02,03,08,1.70
2017,04,02,03,09,1.70
2017,04,02,03,10,1.70
2017,04,02,03,11,1.60
2017,04,02,03,12,1.60
2017,04,02,03,13,1.60
2017,04,02,03,14,1.50
2017,04,02,03,15,1.50
2017,04,02,03,16,1.50
2017,04,02,03,17,1.50
2017,04,02,03,18,1.40
2017,04,02,03,19,1.40
2017,04,02,03,20,1.40
2017,04,02,03,21,1.40
2017,04,02,03,22,1.40
2017,04,02,03,23,1.50
2017,04,02,03,24,1.50
2017,04,02,03,25,1.50
2017,04,02,03,26,1.50
2017,04,02,03,27,1.50
2017,04,02,03,28,1.50
2017,04,02,03,29,1.40
2017,04,02,03,30,1.40
2017,04,02,03,31,1.40
2017,04,02,03,32,1.40
2017,04,02,03,33,1.30
2017,04,02,03,34,1.30
2017,04,02,03,35,1.30
2017,04,02,03,36,1.30
2017,04,02,03,37,1.30
2017,04,02,03,38,1.30
2017,04,02,03,39,1.30
2017,04,02,03,40,1.30
2017,04,02,03,41,1.40
2017,04,02,03,42,1.40
2017,04,02,03,43,1.50
2017,04,02,03,44,1.50
2017,04,02,03,45,1.50
2017,04,02,03,46,1.50
2017,04,02,03,47,1.50
2017,04,02,03,48,1.50
2017,04,02,03,49,1.50
2017,04,02,03,50,1.50
2017,04,02,03,51,1.50
2017,04,02,03,52,1.40
2017,04,02,03,53,1.40
2017,04,02,03,54,1.40
2017,04,02,03,55,1.40
2017,04,02,03,56,1.40
2017,04,02,03,57,1.40
2017,04,02,03,58,1.40
2017,04,02,03,59,1.40
2017,04,02,04,00,1.30
2017,04,02,04,01,1.30
2017,04,02,04,02,1.30
2017,04,02,04,03,1.30
2017,04,02,04,04,1.30
2017,04,02,04,05,1.30
2017,04,02,04,06,1.30
2017,04,02,04,07,1.20
2017,04,02,04,08,1.20
2017,04,02,04,09,1.20
2017,04,02,04,10,1.20
2017,04,02,04,11,1.20
2017,04,02,04,12,1.20
2017,04,02,04,13,1.20
2017,04,02,04,14,1.30
2017,04,02,04,15,1.30
2017,04,02,04,16,1.30
2017,04,02,04,17,1.30
2017,04,02,04,18,1.30
2017,04,02,04,19,1.30
2017,04,02,04,20,1.30
2017,04,02,04,21,1.30
2017,04,02,04,22,1.30
2017,04,02,04,23,1.30
2017,04,02,04,24,1.30
2017,04,02,04,25,1.30
2017,04,02,04,26,1.30
2017,04,02,04,27,1.30
2017,04,02,04,28,1.30
2017,04,02,04,29,1.30
2017,04,02,04,30,1.30
2017,04,02,04,31,1.30
2017,04,02,04,32,1.30
2017,04,02,04,33,1.20
2017,04,02,04,34,1.20
2017,04,02,04,35,1.20
2017,04,02,04,36,1.20
2017,04,02,04,37,1.20
2017,04,02,04,38,1.20
2017,04,02,04,39,1.20
2017,04,02,04,40,1.20
2017,04,02,04,41,1.20
2017,04,02,04,42,1.20
2017,04,02,04,43,1.20
2017,04,02,04,44,1.20
2017,04,02,04,45,1.20
2017,04,02,04,46,1.20
2017,04,02,04,47,1.20
2017,04,02,04,48,1.20
2017,04,02,04,49,1.20
2017,04,02,04,50,1.20
2017,04,02,04,51,1.20
2017,04,02,04,52,1.20
2017,04,02,04,53,1.20
2017,04,02,04,54,1.20
2017,04,02,04,55,1.20
2017,04,02,04,56,1.20
2017,04,02,04,57,1.20
2017,04,02,04,58,1.10
2017,04,02,04,59,1.10
2017,04,02,05,00,1.10
2017,04,02,05,01,1.10
2017,04,02,05,02,1.10
2017,04,02,05,03,1.10
2017,04,02,05,04,1.10
2017,04,02,05,05,1.10
2017,04,02,05,06,1.10
2017,04,02,05,07,1.10
2017,04,02,05,08,1.10
2017,04,02,05,09,1.10
2017,04,02,05,10,1.00
2017,04,02,05,11,1.00
2017,04,02,05,12,1.00
2017,04,02,05,13,1.00
2017,04,02,05,14,1.00
2017,04,02,05,15,0.90
2017,04,02,05,16,0.90
2017,04,02,05,17,0.90
2017,04,02,05,18,0.90
2017,04,02,05,19,0.90
2017,04,02,05,20,0.90
2017,04,02,05,21,0.80
2017,04,02,05,22,0.80
2017,04,02,05,23,0.80
2017,04,02,05,24,0.80
2017,04,02,05,25,0.80
2017,04,02,05,26,0.80
2017,04,02,05,27,0.80
2017,04,02,05,28,0.80
2017,04,02,05,29,0.80
2017,04,02,05,30,0.80
2017,04,02,05,31,0.80
2017,04,02,05,32,0.90
2017,04,02,05,33,0.90
2017,04,02,05,34,0.90
2017,04,02,05,35,0.90
2017,04,02,05,36,0.90
2017,04,02,05,37,0.90
2017,04,02,05,38,0.90
2017,04,02,05,39,0.90
2017,04,02,05,40,0.90
2017,04,02,05,41,0.90
2017,04,02,05,42,0.90
2017,04,02,05,43,0.90
2017,04,02,05,44,0.90
2017,04,02,05,45,0.90
2017,04,02,05,46,0.90
2017,04,02,05,47,0.90
2017,04,02,05,48,0.90
2017,04,02,05,49,0.90
2017,04,02,05,50,0.90
2017,04,02,05,51,0.90
2017,04,02,05,52,0.90
2017,04,02,05,53,1.00
2017,04,02,05,54,1.00
2017,04,02,05,55,1.00
2017,04,02,05,56,1.00
2017,04,02,05,57,1.00
2017,04,02,05,58,1.00
2017,04,02,05,59,1.00
2017,04,02,06,00,1.10
2017,04,02,06,01,1.10
2017,04,02,06,02,1.10
2017,04,02,06,03,1.10
2017,04,02,06,04,1.10
2017,04,02,06,05,1.10
2017,04,02,06,06,1.10
2017,04,02,06,07,1.10
2017,04,02,06,08,1.10
2017,04,02,06,09,1.20
2017,04,02,06,10,1.10
2017,04,02,06,11,1.20
2017,04,02,06,12,1.20
2017,04,02,06,13,1.20
2017,04,02,06,14,1.20
2017,04,02,06,15,1.20
2017,04,02,06,16,1.20
2017,04,02,06,17,1.10
2017,04,02,06,18,1.10
2017,04,02,06,19,1.10
2017,04,02,06,20,1.10
2017,04,02,06,21,1.10
2017,04,02,06,22,1.10
2017,04,02,06,23,1.10
2017,04,02,06,24,1.10
2017,04,02,06,25,1.10
2017,04,02,06,26,1.10
2017,04,02,06,27,1.10
2017,04,02,06,28,1.20
2017,04,02,06,29,1.20
2017,04,02,06,30,1.20
2017,04,02,06,31,1.20
2017,04,02,06,32,1.20
2017,04,02,06,33,1.20
2017,04,02,06,34,1.20
2017,04,02,06,35,1.20
2017,04,02,06,36,1.20
2017,04,02,06,37,1.20
2017,04,02,06,38,1.20
2017,04,02,06,39,1.20
2017,04,02,06,40,1.10
2017,04,02,06,41,1.10
2017,04,02,06,42,1.10
2017,04,02,06,43,1.10
2017,04,02,06,44,1.00
2017,04,02,06,45,1.00
2017,04,02,06,46,1.00
2017,04,02,06,47,1.00
2017,04,02,06,48,0.90
2017,04,02,06,49,0.90
2017,04,02,06,50,0.90
2017,04,02,06,51,0.90
2017,04,02,06,52,0.90
2017,04,02,06,53,0.90
2017,04,02,06,54,0.90
2017,04,02,06,55,0.90
2017,04,02,06,56,0.90
2017,04,02,06,57,0.90
2017,04,02,06,58,0.90
2017,04,02,06,59,0.90
2017,04,02,07,00,0.90
2017,04,02,07,01,0.90
2017,04,02,07,02,0.90
2017,04,02,07,03,0.90
2017,04,02,07,04,0.80
2017,04,02,07,05,0.80
2017,04,02,07,06,0.80
2017,04,02,07,07,0.80
2017,04,02,07,08,0.80
2017,04,02,07,09,0.80
2017,04,02,07,10,0.80
2017,04,02,07,11,0.80
2017,04,02,07,12,0.80
2017,04,02,07,13,0.90
2017,04,02,07,14,0.90
2017,04,02,07,15,0.90
2017,04,02,07,16,0.90
2017,04,02,07,17,0.80
2017,04,02,07,18,0.80
2017,04,02,07,19,0.80
2017,04,02,07,20,0.80
2017,04,02,07,21,0.80
2017,04,02,07,22,0.80
2017,04,02,07,23,0.80
2017,04,02,07,24,0.80
2017,04,02,07,25,0.80
2017,04,02,07,26,0.80
2017,04,02,07,27,0.80
2017,04,02,07,28,0.80
2017,04,02,07,29,0.90
2017,04,02,07,30,0.90
2017,04,02,07,31,0.90
2017,04,02,07,32,0.90
2017,04,02,07,33,0.90
2017,04,02,07,34,0.90
2017,04,02,07,35,1.00
2017,04,02,07,36,1.00
2017,04,02,07,37,1.00
2017,04,02,07,38,1.00
2017,04,02,07,39,1.10
2017,04,02,07,40,1.10
2017,04,02,07,41,1.10
2017,04,02,07,42,1.10
2017,04,02,07,43,1.10
2017,04,02,07,44,1.10
2017,04,02,07,45,1.10
2017,04,02,07,46,1.20
2017,04,02,07,47,1.20
2017,04,02,07,48,1.20
2017,04,02,07,49,1.20
2017,04,02,07,50,1.20
2017,04,02,07,51,1.30
2017,04,02,07,52,1.30
2017,04,02,07,53,1.30
2017,04,02,07,54,1.40
2017,04,02,07,55,1.40
2017,04,02,07,56,1.50
2017,04,02,07,57,1.50
2017,04,02,07,58,1.60
2017,04,02,07,59,1.60
2017,04,02,08,00,1.70
2017,04,02,08,01,1.70
2017,04,02,08,02,1.80
2017,04,02,08,03,1.80
2017,04,02,08,04,1.90
2017,04,02,08,05,1.90
2017,04,02,08,06,2.00
2017,04,02,08,07,2.10
2017,04,02,08,08,2.10
2017,04,02,08,09,2.20
2017,04,02,08,10,2.30
2017,04,02,08,11,2.40
2017,04,02,08,12,2.50
2017,04,02,08,13,2.50
2017,04,02,08,14,2.60
2017,04,02,08,15,2.70
2017,04,02,08,16,2.70
2017,04,02,08,17,2.80
2017,04,02,08,18,2.90
2017,04,02,08,19,2.90
2017,04,02,08,20,3.00
2017,04,02,08,21,3.10
2017,04,02,08,22,3.20
2017,04,02,08,23,3.30
2017,04,02,08,24,3.40
2017,04,02,08,25,3.50
2017,04,02,08,26,3.60
2017,04,02,08,27,3.70
2017,04,02,08,28,3.80
2017,04,02,08,29,3.90
2017,04,02,08,30,4.00
2017,04,02,08,31,4.20
2017,04,02,08,32,4.20
2017,04,02,08,33,4.30
2017,04,02,08,34,4.40
2017,04,02,08,35,4.50
2017,04,02,08,36,4.60
2017,04,02,08,37,4.70
2017,04,02,08,38,4.90
2017,04,02,08,39,5.00
2017,04,02,08,40,5.00
2017,04,02,08,41,5.10
2017,04,02,08,42,5.20
2017,04,02,08,43,5.20
2017,04,02,08,44,5.20
2017,04,02,08,45,5.20
2017,04,02,08,46,5.30
2017,04,02,08,47,5.30
2017,04,02,08,48,5.30
2017,04,02,08,49,5.30
2017,04,02,08,50,5.30
2017,04,02,08,51,5.30
2017,04,02,08,52,5.30
2017,04,02,08,53,5.30
2017,04,02,08,54,5.30
2017,04,02,08,55,5.30
2017,04,02,08,56,5.30
2017,04,02,08,57,5.30
2017,04,02,08,58,5.30
2017,04,02,08,59,5.30
2017,04,02,09,00,5.40
2017,04,02,09,01,5.40
2017,04,02,09,02,5.40
2017,04,02,09,03,5.40
2017,04,02,09,04,5.50
2017,04,02,09,05,5.50
2017,04,02,09,06,5.60
2017,04,02,09,07,5.60
2017,04,02,09,08,5.60
2017,04,02,09,09,5.60
2017,04,02,09,10,5.60
2017,04,02,09,11,5.60
2017,04,02,09,12,5.70
2017,04,02,09,13,5.70
2017,04,02,09,14,5.70
2017,04,02,09,15,5.70
2017,04,02,09,16,5.80
2017,04,02,09,17,5.80
2017,04,02,09,18,5.80
2017,04,02,09,19,5.80
2017,04,02,09,20,5.80
2017,04,02,09,21,5.80
2017,04,02,09,22,5.80
2017,04,02,09,23,5.80
2017,04,02,09,24,5.80
2017,04,02,09,25,5.80
2017,04,02,09,26,5.80
2017,04,02,09,27,5.80
2017,04,02,09,28,5.90
2017,04,02,09,29,5.90
2017,04,02,09,30,5.90
2017,04,02,09,31,6.00
2017,04,02,09,32,6.00
2017,04,02,09,33,6.10
2017,04,02,09,34,6.10
2017,04,02,09,35,6.10
2017,04,02,09,36,6.10
2017,04,02,09,37,6.10
2017,04,02,09,38,6.10
2017,04,02,09,39,6.10
2017,04,02,09,40,6.10
2017,04,02,09,41,6.10
2017,04,02,09,42,6.10
2017,04,02,09,43,6.10
2017,04,02,09,44,6.10
2017,04,02,09,45,6.10
2017,04,02,09,46,6.20
2017,04,02,09,47,6.20
2017,04,02,09,48,6.20
2017,04,02,09,49,6.20
2017,04,02,09,50,6.20
2017,04,02,09,51,6.20
2017,04,02,09,52,6.20
2017,04,02,09,53,6.30
2017,04,02,09,54,6.20
2017,04,02,09,55,6.30
2017,04,02,09,56,6.30
2017,04,02,09,57,6.30
2017,04,02,09,58,6.30
2017,04,02,09,59,6.30
2017,04,02,10,00,6.30
2017,04,02,10,01,6.30
2017,04,02,10,02,6.30
2017,04,02,10,03,6.40
2017,04,02,10,04,6.40
2017,04,02,10,05,6.40
2017,04,02,10,06,6.50
2017,04,02,10,07,6.60
2017,04,02,10,08,6.60
2017,04,02,10,09,6.70
2017,04,02,10,10,6.70
2017,04,02,10,11,6.80
2017,04,02,10,12,6.90
2017,04,02,10,13,7.00
2017,04,02,10,14,7.00
2017,04,02,10,15,7.10
2017,04,02,10,16,7.10
2017,04,02,10,17,7.10
2017,04,02,10,18,7.10
2017,04,02,10,19,7.20
2017,04,02,10,20,7.30
2017,04,02,10,21,7.30
2017,04,02,10,22,7.30
2017,04,02,10,23,7.20
2017,04,02,10,24,7.30
2017,04,02,10,25,7.30
2017,04,02,10,26,7.30
2017,04,02,10,27,7.40
2017,04,02,10,28,7.40
2017,04,02,10,29,7.40
2017,04,02,10,30,7.40
2017,04,02,10,31,7.50
2017,04,02,10,32,7.50
2017,04,02,10,33,7.50
2017,04,02,10,34,7.50
2017,04,02,10,35,7.50
2017,04,02,10,36,7.60
2017,04,02,10,37,7.60
2017,04,02,10,38,7.60
2017,04,02,10,39,7.70
2017,04,02,10,40,7.70
2017,04,02,10,41,7.70
2017,04,02,10,42,7.70
2017,04,02,10,43,7.70
2017,04,02,10,44,7.60
2017,04,02,10,45,7.60
2017,04,02,10,46,7.60
2017,04,02,10,47,7.60
2017,04,02,10,48,7.50
2017,04,02,10,49,7.50
2017,04,02,10,50,7.40
2017,04,02,10,51,7.40
2017,04,02,10,52,7.40
2017,04,02,10,53,7.40
2017,04,02,10,54,7.40
2017,04,02,10,55,7.50
2017,04,02,10,56,7.50
2017,04,02,10,57,7.60
2017,04,02,10,58,7.60
2017,04,02,10,59,7.70
2017,04,02,11,00,7.80
2017,04,02,11,01,7.90
2017,04,02,11,02,7.90
2017,04,02,11,03,7.90
2017,04,02,11,04,8.00
2017,04,02,11,05,8.10
2017,04,02,11,06,8.10
2017,04,02,11,07,8.20
2017,04,02,11,08,8.30
2017,04,02,11,09,8.30
2017,04,02,11,10,8.30
2017,04,02,11,11,8.30
2017,04,02,11,12,8.40
2017,04,02,11,13,8.40
2017,04,02,11,14,8.40
2017,04,02,11,15,8.40
2017,04,02,11,16,8.40
2017,04,02,11,17,8.30
2017,04,02,11,18,8.30
2017,04,02,11,19,8.30
2017,04,02,11,20,8.30
2017,04,02,11,21,8.40
2017,04,02,11,22,8.40
2017,04,02,11,23,8.50
2017,04,02,11,24,8.50
2017,04,02,11,25,8.50
2017,04,02,11,26,8.60
2017,04,02,11,27,8.60
2017,04,02,11,28,8.60
2017,04,02,11,29,8.60
2017,04,02,11,30,8.60
2017,04,02,11,31,8.60
2017,04,02,11,32,8.60
2017,04,02,11,33,8.60
2017,04,02,11,34,8.70
2017,04,02,11,35,8.80
2017,04,02,11,36,8.80
2017,04,02,11,37,8.90
2017,04,02,11,38,8.90
2017,04,02,11,39,9.00
2017,04,02,11,40,9.00
2017,04,02,11,41,9.00
2017,04,02,11,42,9.00
2017,04,02,11,43,9.10
2017,04,02,11,44,9.10
2017,04,02,11,45,9.10
2017,04,02,11,46,9.00
2017,04,02,11,47,8.90
2017,04,02,11,48,8.90
2017,04,02,11,49,8.90
2017,04,02,11,50,8.90
2017,04,02,11,51,8.80
2017,04,02,11,52,8.80
2017,04,02,11,53,8.80
2017,04,02,11,54,8.80
2017,04,02,11,55,8.80
2017,04,02,11,56,8.80
2017,04,02,11,57,8.70
2017,04,02,11,58,8.70
2017,04,02,11,59,8.70
2017,04,02,12,00,8.60
2017,04,02,12,01,8.50
2017,04,02,12,02,8.50
2017,04,02,12,03,8.40
2017,04,02,12,04,8.50
2017,04,02,12,05,8.40
2017,04,02,12,06,8.40
2017,04,02,12,07,8.30
2017,04,02,12,08,8.20
2017,04,02,12,09,8.10
2017,04,02,12,10,8.10
2017,04,02,12,11,8.00
2017,04,02,12,12,8.00
2017,04,02,12,13,8.00
2017,04,02,12,14,8.10
2017,04,02,12,15,8.10
2017,04,02,12,16,8.00
2017,04,02,12,17,8.00
2017,04,02,12,18,7.90
2017,04,02,12,19,7.90
2017,04,02,12,20,7.90
2017,04,02,12,21,7.90
2017,04,02,12,22,7.90
2017,04,02,12,23,7.90
2017,04,02,12,24,7.90
2017,04,02,12,25,7.80
2017,04,02,12,26,7.80
2017,04,02,12,27,7.80
2017,04,02,12,28,7.80
2017,04,02,12,29,7.70
2017,04,02,12,30,7.60
2017,04,02,12,31,7.60
2017,04,02,12,32,7.60
2017,04,02,12,33,7.70
2017,04,02,12,34,7.80
2017,04,02,12,35,7.80
2017,04,02,12,36,7.80
2017,04,02,12,37,7.80
2017,04,02,12,38,7.80
2017,04,02,12,39,7.80
2017,04,02,12,40,7.80
2017,04,02,12,41,7.90
2017,04,02,12,42,7.90
2017,04,02,12,43,8.10
2017,04,02,12,44,8.20
2017,04,02,12,45,8.20
2017,04,02,12,46,8.10
2017,04,02,12,47,8.10
2017,04,02,12,48,8.00
2017,04,02,12,49,7.90
2017,04,02,12,50,7.80
2017,04,02,12,51,7.70
2017,04,02,12,52,7.70
2017,04,02,12,53,7.70
2017,04,02,12,54,7.70
2017,04,02,12,55,7.80
2017,04,02,12,56,7.80
2017,04,02,12,57,7.90
2017,04,02,12,58,8.00
2017,04,02,12,59,8.10
2017,04,02,13,00,8.20
2017,04,02,13,01,8.20
2017,04,02,13,02,8.30
2017,04,02,13,03,8.30
2017,04,02,13,04,8.30
2017,04,02,13,05,8.50
2017,04,02,13,06,8.60
2017,04,02,13,07,8.70
2017,04,02,13,08,8.80
2017,04,02,13,09,8.80
2017,04,02,13,10,8.80
2017,04,02,13,11,8.80
2017,04,02,13,12,8.80
2017,04,02,13,13,8.80
2017,04,02,13,14,8.80
2017,04,02,13,15,8.90
2017,04,02,13,16,8.90
2017,04,02,13,17,9.00
2017,04,02,13,18,9.10
2017,04,02,13,19,9.10
2017,04,02,13,20,9.20
2017,04,02,13,21,9.30
2017,04,02,13,22,9.30
2017,04,02,13,23,9.30
2017,04,02,13,24,9.40
2017,04,02,13,25,9.40
2017,04,02,13,26,9.50
2017,04,02,13,27,9.60
2017,04,02,13,28,9.70
2017,04,02,13,29,9.80
2017,04,02,13,30,10.00
2017,04,02,13,31,10.20
2017,04,02,13,32,10.40
2017,04,02,13,33,10.50
2017,04,02,13,34,10.40
2017,04,02,13,35,10.40
2017,04,02,13,36,10.40
2017,04,02,13,37,10.50
2017,04,02,13,38,10.40
2017,04,02,13,39,10.40
2017,04,02,13,40,10.30
2017,04,02,13,41,10.30
2017,04,02,13,42,10.10
2017,04,02,13,43,10.00
2017,04,02,13,44,9.90
2017,04,02,13,45,9.80
2017,04,02,13,46,9.80
2017,04,02,13,47,9.80
2017,04,02,13,48,9.80
2017,04,02,13,49,9.70
2017,04,02,13,50,9.70
2017,04,02,13,51,9.70
2017,04,02,13,52,9.60
2017,04,02,13,53,9.60
2017,04,02,13,54,9.60
2017,04,02,13,55,9.60
2017,04,02,13,56,9.50
2017,04,02,13,57,9.50
2017,04,02,13,58,9.40
2017,04,02,13,59,9.40
2017,04,02,14,00,9.40
2017,04,02,14,01,9.30
2017,04,02,14,02,9.30
2017,04,02,14,03,9.30
2017,04,02,14,04,9.30
2017,04,02,14,05,9.30
2017,04,02,14,06,9.40
2017,04,02,14,07,9.40
2017,04,02,14,08,9.50
2017,04,02,14,09,9.50
2017,04,02,14,10,9.60
2017,04,02,14,11,9.60
2017,04,02,14,12,9.50
2017,04,02,14,13,9.40
2017,04,02,14,14,9.30
2017,04,02,14,15,9.20
2017,04,02,14,16,9.10
2017,04,02,14,17,9.00
2017,04,02,14,18,9.00
2017,04,02,14,19,8.90
2017,04,02,14,20,8.90
2017,04,02,14,21,8.90
2017,04,02,14,22,8.80
2017,04,02,14,23,8.80
2017,04,02,14,24,8.80
2017,04,02,14,25,8.80
2017,04,02,14,26,8.80
2017,04,02,14,27,8.80
2017,04,02,14,28,8.80
2017,04,02,14,29,8.80
2017,04,02,14,30,8.80
2017,04,02,14,31,8.70
2017,04,02,14,32,8.70
2017,04,02,14,33,8.80
2017,04,02,14,34,8.80
2017,04,02,14,35,8.90
2017,04,02,14,36,9.00
2017,04,02,14,37,9.10
2017,04,02,14,38,9.10
2017,04,02,14,39,9.20
2017,04,02,14,40,9.20
2017,04,02,14,41,9.30
2017,04,02,14,42,9.30
2017,04,02,14,43,9.40
2017,04,02,14,44,9.40
2017,04,02,14,45,9.50
2017,04,02,14,46,9.50
2017,04,02,14,47,9.50
2017,04,02,14,48,9.50
2017,04,02,14,49,9.60
2017,04,02,14,50,9.50
2017,04,02,14,51,9.60
2017,04,02,14,52,9.60
2017,04,02,14,53,9.60
2017,04,02,14,54,9.60
2017,04,02,14,55,9.70
2017,04,02,14,56,9.80
2017,04,02,14,57,9.80
2017,04,02,14,58,9.80
2017,04,02,14,59,9.80
2017,04,02,15,00,9.80
2017,04,02,15,01,9.80
2017,04,02,15,02,9.80
2017,04,02,15,03,9.70
2017,04,02,15,04,9.70
2017,04,02,15,05,9.80
2017,04,02,15,06,9.80
2017,04,02,15,07,9.90
2017,04,02,15,08,9.90
2017,04,02,15,09,10.00
2017,04,02,15,10,10.10
2017,04,02,15,11,10.20
2017,04,02,15,12,10.40
2017,04,02,15,13,10.50
2017,04,02,15,14,10.60
2017,04,02,15,15,10.70
2017,04,02,15,16,10.80
2017,04,02,15,17,10.90
2017,04,02,15,18,11.00
2017,04,02,15,19,11.10
2017,04,02,15,20,11.20
2017,04,02,15,21,11.20
2017,04,02,15,22,11.20
2017,04,02,15,23,11.30
2017,04,02,15,24,11.30
2017,04,02,15,25,11.30
2017,04,02,15,26,11.30
2017,04,02,15,27,11.30
2017,04,02,15,28,11.30
2017,04,02,15,29,11.30
2017,04,02,15,30,11.30
2017,04,02,15,31,11.30
2017,04,02,15,32,11.30
2017,04,02,15,33,11.40
2017,04,02,15,34,11.50
2017,04,02,15,35,11.50
2017,04,02,15,36,11.60
2017,04,02,15,37,11.70
2017,04,02,15,38,11.80
2017,04,02,15,39,11.90
2017,04,02,15,40,11.90
2017,04,02,15,41,11.90
2017,04,02,15,42,11.90
2017,04,02,15,43,12.00
2017,04,02,15,44,12.00
2017,04,02,15,45,12.10
2017,04,02,15,46,12.10
2017,04,02,15,47,12.10
2017,04,02,15,48,12.10
2017,04,02,15,49,12.10
2017,04,02,15,50,12.20
2017,04,02,15,51,12.20
2017,04,02,15,52,12.20
2017,04,02,15,53,12.20
2017,04,02,15,54,12.20
2017,04,02,15,55,12.20
2017,04,02,15,56,12.20
2017,04,02,15,57,12.20
2017,04,02,15,58,12.20
2017,04,02,15,59,12.10
2017,04,02,16,00,12.00
2017,04,02,16,01,11.90
2017,04,02,16,02,11.80
2017,04,02,16,03,11.70
2017,04,02,16,04,11.70
2017,04,02,16,05,11.60
2017,04,02,16,06,11.50
2017,04,02,16,07,11.40
2017,04,02,16,08,11.30
2017,04,02,16,09,11.30
2017,04,02,16,10,11.20
2017,04,02,16,11,11.20
2017,04,02,16,12,11.10
2017,04,02,16,13,11.00
2017,04,02,16,14,11.00
2017,04,02,16,15,11.00
2017,04,02,16,16,10.90
2017,04,02,16,17,10.90
2017,04,02,16,18,10.90
2017,04,02,16,19,10.80
2017,04,02,16,20,10.80
2017,04,02,16,21,10.90
2017,04,02,16,22,11.00
2017,04,02,16,23,11.10
2017,04,02,16,24,11.10
2017,04,02,16,25,11.20
2017,04,02,16,26,11.20
2017,04,02,16,27,11.20
2017,04,02,16,28,11.10
2017,04,02,16,29,11.10
2017,04,02,16,30,11.10
2017,04,02,16,31,11.10
2017,04,02,16,32,11.10
2017,04,02,16,33,11.10
2017,04,02,16,34,11.20
2017,04,02,16,35,11.20
2017,04,02,16,36,11.30
2017,04,02,16,37,11.30
2017,04,02,16,38,11.40
2017,04,02,16,39,11.40
2017,04,02,16,40,11.40
2017,04,02,16,41,11.50
2017,04,02,16,42,11.50
2017,04,02,16,43,11.60
2017,04,02,16,44,11.60
2017,04,02,16,45,11.70
2017,04,02,16,46,11.70
2017,04,02,16,47,11.60
2017,04,02,16,48,11.60
2017,04,02,16,49,11.60
2017,04,02,16,50,11.60
2017,04,02,16,51,11.60
2017,04,02,16,52,11.60
2017,04,02,16,53,11.50
2017,04,02,16,54,11.50
2017,04,02,16,55,11.40
2017,04,02,16,56,11.40
2017,04,02,16,57,11.40
2017,04,02,16,58,11.30
2017,04,02,16,59,11.20
2017,04,02,17,00,11.10
2017,04,02,17,01,11.10
2017,04,02,17,02,11.00
2017,04,02,17,03,10.90
2017,04,02,17,04,10.80
2017,04,02,17,05,10.80
2017,04,02,17,06,10.80
2017,04,02,17,07,10.80
2017,04,02,17,08,10.80
2017,04,02,17,09,10.80
2017,04,02,17,10,10.80
2017,04,02,17,11,10.80
2017,04,02,17,12,10.80
2017,04,02,17,13,10.80
2017,04,02,17,14,10.80
2017,04,02,17,15,10.80
2017,04,02,17,16,10.80
2017,04,02,17,17,10.80
2017,04,02,17,18,10.90
2017,04,02,17,19,10.90
2017,04,02,17,20,10.90
2017,04,02,17,21,11.00
2017,04,02,17,22,11.00
2017,04,02,17,23,11.00
2017,04,02,17,24,11.00
2017,04,02,17,25,11.00
2017,04,02,17,26,11.00
2017,04,02,17,27,11.10
2017,04,02,17,28,11.10
2017,04,02,17,29,11.10
2017,04,02,17,30,11.10
2017,04,02,17,31,11.10
2017,04,02,17,32,11.10
2017,04,02,17,33,11.00
2017,04,02,17,34,11.00
2017,04,02,17,35,11.00
2017,04,02,17,36,11.00
2017,04,02,17,37,11.00
2017,04,02,17,38,10.90
2017,04,02,17,39,10.90
2017,04,02,17,40,10.80
2017,04,02,17,41,10.80
2017,04,02,17,42,10.80
2017,04,02,17,43,10.70
2017,04,02,17,44,10.70
2017,04,02,17,45,10.70
2017,04,02,17,46,10.60
2017,04,02,17,47,10.60
2017,04,02,17,48,10.60
2017,04,02,17,49,10.60
2017,04,02,17,50,10.60
2017,04,02,17,51,10.60
2017,04,02,17,52,10.60
2017,04,02,17,53,10.60
2017,04,02,17,54,10.50
2017,04,02,17,55,10.50
2017,04,02,17,56,10.50
2017,04,02,17,57,10.50
2017,04,02,17,58,10.40